Olive Branch, MS

6:15 PM CDT on October 18, 2017 (GMT -0500)
Olive Branch

Weather History for KOLV - May, 2013

Change the Weather History Date:

Wednesday, May 8, 2013

  Actual Average (KMEM) Record (KMEM)
Temperature  
Mean Temperature 64 °F -  
Max Temperature 78 °F 78 °F 93 °F (1952)
Min Temperature 51 °F 60 °F 42 °F (1885)
Growing Degree Days 14 (Base 50)    
Moisture  
Dew Point 58 °F    
Average Humidity 84    
Maximum Humidity 100    
Minimum Humidity 50    
Precipitation  
Precipitation 0.00 in - - ()
Sea Level Pressure  
Sea Level Pressure 30.04 in    
Wind  
Wind Speed 0 mph (WSW)    
Max Wind Speed 8 mph    
Max Gust Speed -    
Visibility 9 miles    
Events      
Averages and records for this station are not official NWS values.
T = Trace of Precipitation, MM = Missing Value Source: NWS Daily Summary

Daily Weather History Graph

Daily Weather History Graph

Search for Another Location

Airport or City:

Trip Planner

Search our weather history database for the weather conditions in past years. The results will help you decide how hot, cold, wet, or windy it might be!

Date:

Astronomy

May. 08, 2013 Rise Set
Actual Time 6:01 AM CDT 7:50 PM CDT
Civil Twilight 5:33 AM CDT 8:18 PM CDT
Nautical Twilight 5:00 AM CDT 8:51 PM CDT
Astronomical Twilight 4:24 AM CDT 9:27 PM CDT
Moon 5:06 AM CDT (5/8) 6:50 PM CDT (5/8)
Length of Visible Light 14h 44m
Length of Day
13h 49m
Waning Crescent, 2% of the Moon is Illuminated
May 8
Waning Crescent
May 9
New
May 17
First Quarter
May 24
Full
May 31
Last Quarter

Hourly Weather History & Observations

Time (CDT) Temp. Dew Point Humidity Pressure Visibility Wind Dir Wind Speed Gust Speed Precip Events Conditions
12:15 AM 57.2 °F 57.2 °F 100% 30.03 in 10.0 mi Calm Calm - 0.00 in   Clear
12:35 AM 57.2 °F 57.2 °F 100% 30.03 in 10.0 mi Calm Calm - 0.00 in   Clear
12:55 AM 55.4 °F 55.4 °F 100% 30.03 in 7.0 mi Calm Calm - 0.00 in   Clear
1:15 AM 55.4 °F 55.4 °F 100% 30.03 in 9.0 mi Calm Calm - 0.00 in   Clear
1:35 AM 55.4 °F 55.4 °F 100% 30.03 in 9.0 mi Calm Calm - 0.00 in   Clear
1:55 AM 53.6 °F 53.6 °F 100% 30.02 in 5.0 mi Calm Calm - 0.00 in   Clear
2:15 AM 53.6 °F 53.6 °F 100% 30.02 in 7.0 mi Calm Calm - 0.00 in   Clear
2:35 AM 53.6 °F 53.6 °F 100% 30.01 in 8.0 mi Calm Calm - 0.00 in   Clear
2:55 AM 53.6 °F 53.6 °F 100% 30.01 in 5.0 mi Calm Calm - 0.00 in   Clear
3:15 AM 53.6 °F - N/A% 30.01 in 4.0 mi Calm Calm - 0.00 in   Clear
3:35 AM 53.6 °F - N/A% 30.02 in 4.0 mi Calm Calm - 0.00 in   Clear
3:55 AM 53.6 °F - N/A% 30.02 in 8.0 mi Calm Calm - 0.00 in   Clear
4:15 AM 53.6 °F - N/A% 30.02 in 10.0 mi Calm Calm - 0.00 in   Clear
4:35 AM 53.6 °F - N/A% 30.03 in 7.0 mi Calm Calm - 0.00 in   Clear
4:55 AM 53.6 °F - N/A% 30.03 in 10.0 mi Calm Calm - 0.00 in   Clear
5:15 AM 53.6 °F - N/A% 30.03 in 8.0 mi Calm Calm - N/A   Clear
5:35 AM 51.8 °F - N/A% 30.03 in 10.0 mi Calm Calm - 0.00 in   Clear
5:55 AM 51.8 °F - N/A% 30.03 in 7.0 mi Calm Calm - 0.00 in   Clear
6:15 AM 51.8 °F - N/A% 30.04 in 10.0 mi Calm Calm - 0.00 in   Clear
6:35 AM 51.8 °F - N/A% 30.04 in 7.0 mi Calm Calm - 0.00 in   Clear
6:55 AM 51.8 °F - N/A% 30.05 in 9.0 mi Calm Calm - 0.00 in   Clear
7:50 AM 59.0 °F 59.0 °F 100% 30.08 in 8.0 mi Calm Calm - N/A   Partly Cloudy
10:50 AM 73.4 °F 60.8 °F 65% 30.11 in 10.0 mi WSW 5.8 mph - N/A   Scattered Clouds
11:50 AM 75.2 °F 59.0 °F 57% 30.10 in 10.0 mi Calm Calm - N/A   Scattered Clouds
1:55 PM 75.2 °F 55.4 °F 50% 30.07 in 10.0 mi Calm Calm - N/A   Mostly Cloudy
2:55 PM 78.8 °F 60.8 °F 54% 30.05 in 10.0 mi SW 8.1 mph - N/A   Mostly Cloudy
3:55 PM 78.8 °F 59.0 °F 51% 30.04 in 10.0 mi Calm Calm - N/A   Mostly Cloudy
6:50 PM 75.2 °F 57.2 °F 53% 30.03 in 10.0 mi WSW 8.1 mph - N/A   Scattered Clouds
7:50 PM 69.8 °F 59.0 °F 68% 30.03 in 10.0 mi WSW 4.6 mph - N/A   Scattered Clouds
9:15 PM 69.8 °F 60.8 °F 73% 30.04 in 10.0 mi Calm Calm - 0.00 in   Clear
9:35 PM 69.8 °F 60.8 °F 73% 30.04 in 9.0 mi Calm Calm - 0.00 in   Clear
9:55 PM 68.0 °F 60.8 °F 78% 30.04 in 10.0 mi Calm Calm - N/A   Clear
10:15 PM 66.2 °F 62.6 °F 88% 30.05 in 9.0 mi Calm Calm - 0.00 in   Clear
10:35 PM 64.4 °F 62.6 °F 94% 30.05 in 9.0 mi Calm Calm - 0.00 in   Clear
10:55 PM 64.4 °F 62.6 °F 94% 30.05 in 9.0 mi Calm Calm - 0.00 in   Clear
11:15 PM 64.4 °F 62.6 °F 94% 30.04 in 10.0 mi Calm Calm - 0.00 in   Clear
11:35 PM 60.8 °F 60.8 °F 100% 30.03 in 10.0 mi Calm Calm - 0.00 in   Clear
11:55 PM 62.6 °F 60.8 °F 94% 30.03 in 9.0 mi Calm Calm - 0.00 in   Clear